Location: Brno
(49.2000°N, 16.6330°E)
Time: 02:17:44
(UTC+02:00)

Vanguard 3 - Pass Details

Date: 01 August 2021
Orbit: 510 x 3260 km, 33.3° (Epoch: 19 September)

Event Time Altitude Azimuth Distance (km) Brightness Sun altitude
Rises 20:03:01 0° 245° (WSW) 5,934 12.2 3.6°
Reaches altitude 10° 20:06:41 10° 239° (WSW) 5,234 11.8 3.0°
Maximum altitude 20:22:12 47° 173° (S) 3,834 10.4 0.7°
Drops below altitude 10° 20:40:18 10° 109° (ESE) 6,042 10.9 -1.9°
Sets 20:44:56 0° 104° (ESE) 6,879 11.2 -2.5°
Enters shadow 20:45:01 - 104° (ESE) 6,895 11.3 -2.5°
